TimeMDT,TemperatureF,Dew PointF,Humidity,Sea Level PressureIn,VisibilityMPH,Wind Direction,Wind SpeedMPH,Gust SpeedMPH,PrecipitationIn,Events,Conditions,WindDirDegrees,DateUTC
12:15 AM,35.6,30.2,81,30.15,10.0,Calm,Calm,-,N/A,,Overcast,0,2012-10-25 06:15:00
12:35 AM,35.6,30.2,81,30.15,10.0,Calm,Calm,-,N/A,,Mostly Cloudy,0,2012-10-25 06:35:00
12:55 AM,35.6,30.2,81,30.15,10.0,Calm,Calm,-,N/A,,Overcast,0,2012-10-25 06:55:00
1:35 AM,35.6,30.2,81,30.17,10.0,Calm,Calm,-,N/A,,Overcast,0,2012-10-25 07:35:00
1:55 AM,35.6,28.4,75,30.17,10.0,Calm,Calm,-,N/A,,Overcast,0,2012-10-25 07:55:00
2:15 AM,35.6,28.4,75,30.18,10.0,Calm,Calm,-,N/A,,Overcast,0,2012-10-25 08:15:00
2:35 AM,35.6,28.4,75,30.18,10.0,Calm,Calm,-,N/A,,Overcast,0,2012-10-25 08:35:00
2:55 AM,35.6,30.2,81,30.18,8.0,SW,3.5,-,N/A,,Overcast,230,2012-10-25 08:55:00
3:15 AM,35.6,30.2,81,30.19,6.0,Calm,Calm,-,N/A,,Overcast,0,2012-10-25 09:15:00
3:35 AM,35.6,30.2,81,30.19,5.0,Calm,Calm,-,N/A,,Overcast,0,2012-10-25 09:35:00
4:15 AM,33.8,28.4,81,30.19,3.0,Calm,Calm,-,N/A,,Overcast,0,2012-10-25 10:15:00
4:35 AM,33.8,28.4,81,30.20,3.0,NNW,3.5,-,N/A,,Mostly Cloudy,330,2012-10-25 10:35:00
4:55 AM,33.8,28.4,81,30.20,0.2,NNW,3.5,-,N/A,,Overcast,340,2012-10-25 10:55:00
5:35 AM,33.8,28.4,81,30.21,0.2,NNW,3.5,-,N/A,,Overcast,340,2012-10-25 11:35:00
5:55 AM,33.8,28.4,81,30.22,0.2,North,3.5,-,N/A,,Overcast,10,2012-10-25 11:55:00
6:35 AM,33.8,28.4,81,30.23,0.2,Calm,Calm,-,N/A,,Overcast,0,2012-10-25 12:35:00
6:55 AM,32.0,26.6,80,30.24,0.2,Calm,Calm,-,N/A,,Overcast,0,2012-10-25 12:55:00
7:35 AM,32.0,26.6,80,30.26,0.2,Calm,Calm,-,N/A,,Overcast,0,2012-10-25 13:35:00
7:55 AM,32.0,26.6,80,30.26,0.2,Calm,Calm,-,N/A,,Overcast,0,2012-10-25 13:55:00
8:15 AM,32.0,26.6,80,30.27,0.2,Calm,Calm,-,N/A,,Overcast,0,2012-10-25 14:15:00
8:55 AM,32.0,28.4,87,30.29,0.2,SSW,4.6,-,N/A,,Overcast,210,2012-10-25 14:55:00
9:35 AM,32.0,26.6,80,30.30,0.2,Calm,Calm,-,N/A,,Overcast,0,2012-10-25 15:35:00
9:55 AM,33.8,28.4,81,30.31,0.2,Calm,Calm,-,N/A,,Overcast,0,2012-10-25 15:55:00
10:15 AM,33.8,28.4,81,30.32,0.2,Calm,Calm,-,N/A,,Overcast,0,2012-10-25 16:15:00
10:35 AM,33.8,28.4,81,30.32,0.2,NE,3.5,-,N/A,,Overcast,50,2012-10-25 16:35:00
10:55 AM,35.6,30.2,81,30.33,0.2,Calm,Calm,-,N/A,,Overcast,0,2012-10-25 16:55:00
11:15 AM,35.6,30.2,81,30.34,1.2,Calm,Calm,-,N/A,,Overcast,0,2012-10-25 17:15:00
11:35 AM,37.4,32.0,81,30.34,9.0,NNW,3.5,-,N/A,,Mostly Cloudy,330,2012-10-25 17:35:00
11:55 AM,37.4,33.8,87,30.34,10.0,NNW,3.5,-,N/A,,Partly Cloudy,330,2012-10-25 17:55:00
12:15 PM,39.2,33.8,81,30.35,10.0,WNW,4.6,-,N/A,,Clear,290,2012-10-25 18:15:00
12:35 PM,42.8,33.8,70,30.35,10.0,WNW,8.1,-,N/A,,Mostly Cloudy,290,2012-10-25 18:35:00
12:55 PM,44.6,33.8,66,30.36,10.0,WNW,11.5,-,N/A,,Mostly Cloudy,290,2012-10-25 18:55:00
1:35 PM,46.4,33.8,62,30.35,10.0,WNW,9.2,-,N/A,,Partly Cloudy,300,2012-10-25 19:35:00
1:55 PM,46.4,32.0,57,30.36,10.0,NNW,9.2,-,N/A,,Partly Cloudy,340,2012-10-25 19:55:00
2:35 PM,46.4,32.0,57,30.36,10.0,NW,11.5,-,N/A,,Partly Cloudy,310,2012-10-25 20:35:00
3:15 PM,48.2,30.2,50,30.37,10.0,NW,9.2,-,N/A,,Partly Cloudy,310,2012-10-25 21:15:00
3:35 PM,48.2,30.2,50,30.36,10.0,NNW,11.5,-,N/A,,Partly Cloudy,340,2012-10-25 21:35:00
3:55 PM,48.2,30.2,50,30.36,10.0,NNW,10.4,-,N/A,,Partly Cloudy,340,2012-10-25 21:55:00
4:15 PM,48.2,30.2,50,30.37,10.0,NNW,9.2,17.3,N/A,,Clear,340,2012-10-25 22:15:00
4:35 PM,48.2,30.2,50,30.37,10.0,NNW,10.4,-,N/A,,Clear,340,2012-10-25 22:35:00
4:55 PM,48.2,28.4,46,30.38,10.0,NNW,8.1,-,N/A,,Clear,340,2012-10-25 22:55:00
5:15 PM,48.2,30.2,50,30.38,10.0,NNW,5.8,-,N/A,,Partly Cloudy,340,2012-10-25 23:15:00
5:35 PM,46.4,28.4,50,30.38,10.0,NNW,5.8,-,N/A,,Scattered Clouds,340,2012-10-25 23:35:00
6:15 PM,46.4,30.2,53,30.39,10.0,NNW,5.8,-,N/A,,Clear,340,2012-10-26 00:15:00
6:35 PM,44.6,28.4,53,30.40,10.0,NNW,4.6,-,N/A,,Partly Cloudy,340,2012-10-26 00:35:00
6:55 PM,44.6,28.4,53,30.41,10.0,NNW,3.5,-,N/A,,Clear,330,2012-10-26 00:55:00
7:15 PM,44.6,26.6,49,30.41,10.0,NW,3.5,-,N/A,,Clear,310,2012-10-26 01:15:00
7:35 PM,42.8,26.6,53,30.41,10.0,Calm,Calm,-,N/A,,Clear,0,2012-10-26 01:35:00
7:55 PM,42.8,28.4,57,30.41,10.0,Calm,Calm,-,N/A,,Clear,0,2012-10-26 01:55:00
8:15 PM,41.0,26.6,57,30.41,10.0,Calm,Calm,-,N/A,,Clear,0,2012-10-26 02:15:00
8:35 PM,41.0,26.6,57,30.41,10.0,Calm,Calm,-,N/A,,Clear,0,2012-10-26 02:35:00
8:55 PM,39.2,26.6,61,30.42,10.0,Calm,Calm,-,N/A,,Clear,0,2012-10-26 02:55:00
9:15 PM,37.4,28.4,70,30.42,10.0,Calm,Calm,-,N/A,,Clear,0,2012-10-26 03:15:00
9:35 PM,37.4,26.6,65,30.43,10.0,Calm,Calm,-,N/A,,Clear,0,2012-10-26 03:35:00
9:55 PM,37.4,26.6,65,30.43,10.0,Calm,Calm,-,N/A,,Clear,0,2012-10-26 03:55:00
10:35 PM,35.6,26.6,70,30.43,10.0,Calm,Calm,-,N/A,,Clear,0,2012-10-26 04:35:00
10:55 PM,33.8,24.8,70,30.43,10.0,Calm,Calm,-,N/A,,Clear,0,2012-10-26 04:55:00
11:15 PM,33.8,24.8,70,30.43,10.0,Calm,Calm,-,N/A,,Clear,0,2012-10-26 05:15:00
11:35 PM,32.0,24.8,75,30.43,10.0,Calm,Calm,-,N/A,,Clear,0,2012-10-26 05:35:00